Sitc Xiamen — 3ELU — position and weather

sailwx.info

Track history (hours):
 
Tides and Currents Weather Stations Pressure Air Temp Water Temp Dewpoint Dewpoint Depression Visibility Wind Speed Wind Dir Waves Ship Positions

Sitc Xiamen

Last reported at 2014-Aug-30 00:18 UTC. Time now 2014-Sep-03 02:24 UTC.
Position N 31°20' E 121°39'.

Length 145 m; draft 7.4 m.

Type: Ship (hazmat cat A). MMSI: 355090000.

Date/timePositionNaut miles runAvg speedWind from/ knotsBaromVisibWave heightAir tempDewpointWater temp
2014-Aug-30 00:18N 31°20' E 121°39'0 0.0
2014-Aug-29 23:12N 31°20' E 121°39'0 0.0
2014-Aug-29 22:24N 31°20' E 121°39'0 0.0
2014-Aug-29 20:06N 31°20' E 121°39'0 0.0
2014-Aug-29 19:30N 31°20' E 121°39'0 0.3
2014-Aug-29 18:33N 31°21' E 121°39'1 1.3
2014-Aug-29 17:33N 31°21' E 121°40'9 8.4
2014-Aug-29 16:28N 31°14' E 121°48'2811.9
2014-Aug-29 14:05N 31°03' E 122°18'20 2.3
2014-Aug-29 05:30N 31°00' E 122°41'0 0.0
2014-Aug-28 19:24N 31°00' E 122°41'  
2014-Aug-24 15:30N 38°38' E 122°08'1415.0
2014-Aug-24 14:33N 38°50' E 121°58'6 0.6
2014-Aug-24 04:22N 38°46' E 121°53'1214.5
2014-Aug-24 03:33N 38°34' E 121°50'4514.6
2014-Aug-24 00:29N 37°51' E 121°35'1314.4
2014-Aug-23 23:33N 37°39' E 121°28'6 5.8
2014-Aug-23 22:34N 37°35' E 121°23'0 0.0
2014-Aug-23 21:28N 37°35' E 121°23'0 0.0
2014-Aug-23 20:28N 37°35' E 121°23'0 0.0
2014-Aug-23 19:28N 37°35' E 121°23'175 8.0
2014-Aug-22 21:32N 38°55' E 118°05'1212.9
2014-Aug-22 20:33N 38°58' E 117°49'2 2.2
2014-Aug-22 19:31N 38°59' E 117°47'0 0.0
2014-Aug-22 18:31N 38°59' E 117°47'0 0.0
2014-Aug-22 17:31N 38°59' E 117°47'0 0.0
2014-Aug-22 16:31N 38°59' E 117°47'0 0.0
2014-Aug-22 15:31N 38°59' E 117°47'0 0.0
2014-Aug-22 14:31N 38°59' E 117°47'0 0.0
2014-Aug-22 13:31N 38°59' E 117°47'0 0.0
2014-Aug-22 12:31N 38°59' E 117°47'0 0.0
2014-Aug-22 11:31N 38°59' E 117°47'0 0.0
2014-Aug-22 10:31N 38°59' E 117°47'0 0.0
2014-Aug-22 09:31N 38°59' E 117°47'0 0.0
2014-Aug-22 08:31N 38°59' E 117°47'0 0.0
2014-Aug-22 07:31N 38°59' E 117°47'0 0.0
2014-Aug-22 06:34N 38°59' E 117°47'10 9.5
2014-Aug-22 05:34N 38°57' E 117°59'9 8.5
2014-Aug-22 04:34N 38°55' E 118°09'4 0.8
2014-Aug-21 23:25N 38°54' E 118°14'0 0.0
2014-Aug-21 22:22N 38°54' E 118°14'0 0.0
2014-Aug-21 21:31N 38°54' E 118°14'0 0.0
2014-Aug-21 18:07N 38°54' E 118°14'0 0.0
2014-Aug-21 14:31N 38°54' E 118°14'0 0.1
2014-Aug-21 13:33N 38°54' E 118°14'1313.1
2014-Aug-21 12:33N 38°46' E 118°28'1515.0
2014-Aug-21 11:32N 38°39' E 118°45'10114.5
2014-Aug-21 04:33N 38°01' E 120°45'4915.2
2014-Aug-21 01:19N 37°51' E 121°46'2614.7
2014-Aug-20 23:33N 37°46' E 122°18'1514.8
2014-Aug-20 22:34N 37°42' E 122°36'  
Track history (hours):
 
Tides and Currents Weather Stations Pressure Air Temp Water Temp Dewpoint Dewpoint Depression Visibility Wind Speed Wind Dir Waves Ship Positions

Sitc Xiamen

Last reported at 2014-Aug-30 00:18 UTC. Time now 2014-Sep-03 02:24 UTC.
Position N 31°20' E 121°39'.

Length 145 m; draft 7.4 m.

Type: Ship (hazmat cat A). MMSI: 355090000.

Date/timePositionNaut miles runAvg speedWind from/ knotsBaromVisibWave heightAir tempDewpointWater temp
2014-Aug-30 00:18N 31°20' E 121°39'0 0.0
2014-Aug-29 23:12N 31°20' E 121°39'0 0.0
2014-Aug-29 22:24N 31°20' E 121°39'0 0.0
2014-Aug-29 20:06N 31°20' E 121°39'0 0.0
2014-Aug-29 19:30N 31°20' E 121°39'0 0.3
2014-Aug-29 18:33N 31°21' E 121°39'1 1.3
2014-Aug-29 17:33N 31°21' E 121°40'9 8.4
2014-Aug-29 16:28N 31°14' E 121°48'2811.9
2014-Aug-29 14:05N 31°03' E 122°18'20 2.3
2014-Aug-29 05:30N 31°00' E 122°41'0 0.0
2014-Aug-28 19:24N 31°00' E 122°41'  
2014-Aug-24 15:30N 38°38' E 122°08'1415.0
2014-Aug-24 14:33N 38°50' E 121°58'6 0.6
2014-Aug-24 04:22N 38°46' E 121°53'1214.5
2014-Aug-24 03:33N 38°34' E 121°50'4514.6
2014-Aug-24 00:29N 37°51' E 121°35'1314.4
2014-Aug-23 23:33N 37°39' E 121°28'6 5.8
2014-Aug-23 22:34N 37°35' E 121°23'0 0.0
2014-Aug-23 21:28N 37°35' E 121°23'0 0.0
2014-Aug-23 20:28N 37°35' E 121°23'0 0.0
2014-Aug-23 19:28N 37°35' E 121°23'175 8.0
2014-Aug-22 21:32N 38°55' E 118°05'1212.9
2014-Aug-22 20:33N 38°58' E 117°49'2 2.2
2014-Aug-22 19:31N 38°59' E 117°47'0 0.0
2014-Aug-22 18:31N 38°59' E 117°47'0 0.0
2014-Aug-22 17:31N 38°59' E 117°47'0 0.0
2014-Aug-22 16:31N 38°59' E 117°47'0 0.0
2014-Aug-22 15:31N 38°59' E 117°47'0 0.0
2014-Aug-22 14:31N 38°59' E 117°47'0 0.0
2014-Aug-22 13:31N 38°59' E 117°47'0 0.0
2014-Aug-22 12:31N 38°59' E 117°47'0 0.0
2014-Aug-22 11:31N 38°59' E 117°47'0 0.0
2014-Aug-22 10:31N 38°59' E 117°47'0 0.0
2014-Aug-22 09:31N 38°59' E 117°47'0 0.0
2014-Aug-22 08:31N 38°59' E 117°47'0 0.0
2014-Aug-22 07:31N 38°59' E 117°47'0 0.0
2014-Aug-22 06:34N 38°59' E 117°47'10 9.5
2014-Aug-22 05:34N 38°57' E 117°59'9 8.5
2014-Aug-22 04:34N 38°55' E 118°09'4 0.8
2014-Aug-21 23:25N 38°54' E 118°14'0 0.0
2014-Aug-21 22:22N 38°54' E 118°14'0 0.0
2014-Aug-21 21:31N 38°54' E 118°14'0 0.0
2014-Aug-21 18:07N 38°54' E 118°14'0 0.0
2014-Aug-21 14:31N 38°54' E 118°14'0 0.1
2014-Aug-21 13:33N 38°54' E 118°14'1313.1
2014-Aug-21 12:33N 38°46' E 118°28'1515.0
2014-Aug-21 11:32N 38°39' E 118°45'10114.5
2014-Aug-21 04:33N 38°01' E 120°45'4915.2
2014-Aug-21 01:19N 37°51' E 121°46'2614.7
2014-Aug-20 23:33N 37°46' E 122°18'1514.8
2014-Aug-20 22:34N 37°42' E 122°36'  

Dump ship's entire track history